Time,TemperatureF,DewpointF,PressureIn,WindDirection,WindDirectionDegrees,WindSpeedMPH,WindSpeedGustMPH,Humidity,HourlyPrecipIn,Conditions,Clouds,dailyrainin,SoftwareType,DateUTC
2013-03-19 00:03:00,28.0,24.0,30.11,East,92,2.0,-999.0,85,-99.99,,,-99.99,,2013-03-19 04:03:00,
2013-03-19 00:13:00,28.0,24.0,30.11,East,92,2.0,-999.0,85,-99.99,,,-99.99,,2013-03-19 04:13:00,
2013-03-19 00:23:00,28.0,24.0,30.10,NE,44,2.0,-999.0,85,-99.99,,,-99.99,,2013-03-19 04:23:00,
2013-03-19 00:34:00,28.0,24.0,30.09,East,85,2.0,-999.0,85,-99.99,,,-99.99,,2013-03-19 04:34:00,
2013-03-19 00:43:00,28.0,24.0,30.09,East,85,2.0,-999.0,85,-99.99,,,-99.99,,2013-03-19 04:43:00,
2013-03-19 00:52:00,29.0,25.0,30.08,East,92,1.0,-999.0,85,-99.99,,,-99.99,,2013-03-19 04:52:00,
2013-03-19 01:02:00,29.0,25.0,30.07,East,80,1.0,-999.0,86,-99.99,,,-99.99,,2013-03-19 05:02:00,
2013-03-19 01:12:00,29.0,25.0,30.07,East,80,1.0,-999.0,86,-99.99,,,-99.99,,2013-03-19 05:12:00,
2013-03-19 01:22:00,28.0,24.0,30.06,ENE,69,1.0,-999.0,86,-99.99,,,-99.99,,2013-03-19 05:22:00,
2013-03-19 01:32:00,28.0,24.0,30.05,East,79,1.0,-999.0,86,-99.99,,,-99.99,,2013-03-19 05:32:00,
2013-03-19 01:43:00,28.0,24.0,30.05,East,79,1.0,-999.0,86,-99.99,,,-99.99,,2013-03-19 05:43:00,
2013-03-19 01:52:00,28.0,24.0,30.04,ENE,64,1.0,-999.0,86,-99.99,,,-99.99,,2013-03-19 05:52:00,
2013-03-19 02:02:00,28.0,24.0,30.03,NE,49,1.0,-999.0,86,-99.99,,,-99.99,,2013-03-19 06:02:00,
2013-03-19 02:12:00,28.0,24.0,30.03,NE,49,1.0,-999.0,86,-99.99,,,-99.99,,2013-03-19 06:12:00,
2013-03-19 02:22:00,28.0,25.0,30.02,North,1,0.0,-999.0,87,-99.99,,,-99.99,,2013-03-19 06:22:00,
2013-03-19 02:32:00,28.0,25.0,30.00,NE,55,1.0,-999.0,87,-99.99,,,-99.99,,2013-03-19 06:32:00,
2013-03-19 02:42:00,28.0,25.0,30.00,NE,55,1.0,-999.0,87,-99.99,,,-99.99,,2013-03-19 06:42:00,
2013-03-19 02:52:00,28.0,25.0,29.99,ENE,66,1.0,-999.0,87,-99.99,,,-99.99,,2013-03-19 06:52:00,
2013-03-19 03:02:00,28.0,25.0,29.98,NNW,347,1.0,-999.0,87,-99.99,,,-99.99,,2013-03-19 07:02:00,
2013-03-19 03:12:00,28.0,25.0,29.98,NNW,347,1.0,-999.0,87,-99.99,,,-99.99,,2013-03-19 07:12:00,
2013-03-19 03:22:00,28.0,25.0,29.97,NNE,30,1.0,-999.0,87,-99.99,,,-99.99,,2013-03-19 07:22:00,
2013-03-19 03:32:00,28.0,25.0,29.95,NNE,24,1.0,-999.0,87,-99.99,,,-99.99,,2013-03-19 07:32:00,
2013-03-19 03:42:00,28.0,25.0,29.95,NNE,24,1.0,-999.0,87,-99.99,,,-99.99,,2013-03-19 07:42:00,
2013-03-19 03:52:00,28.0,25.0,29.95,NNE,24,1.0,-999.0,87,-99.99,,,-99.99,,2013-03-19 07:52:00,
2013-03-19 04:03:00,29.0,26.0,29.95,NNE,25,1.0,-999.0,87,-99.99,,,-99.99,,2013-03-19 08:03:00,
2013-03-19 04:13:00,29.0,26.0,29.95,NNE,25,1.0,-999.0,87,-99.99,,,-99.99,,2013-03-19 08:13:00,
2013-03-19 04:22:00,29.0,26.0,29.95,East,88,0.0,-999.0,87,-99.99,,,-99.99,,2013-03-19 08:22:00,
2013-03-19 04:32:00,28.0,25.0,29.93,East,90,1.0,-999.0,87,-99.99,,,-99.99,,2013-03-19 08:32:00,
2013-03-19 04:42:00,28.0,25.0,29.93,East,90,1.0,-999.0,87,-99.99,,,-99.99,,2013-03-19 08:42:00,
2013-03-19 04:52:00,28.0,25.0,29.92,North,3,1.0,-999.0,87,-99.99,,,-99.99,,2013-03-19 08:52:00,
2013-03-19 05:03:00,28.0,25.0,29.91,North,4,2.0,-999.0,87,-99.99,,,-99.99,,2013-03-19 09:03:00,
2013-03-19 05:12:00,28.0,25.0,29.91,North,4,2.0,-999.0,87,-99.99,,,-99.99,,2013-03-19 09:12:00,
2013-03-19 05:22:00,28.0,25.0,29.92,NNE,23,3.0,-999.0,88,-99.99,,,-99.99,,2013-03-19 09:22:00,
2013-03-19 05:33:00,28.0,25.0,29.91,NE,40,2.0,-999.0,88,-99.99,,,-99.99,,2013-03-19 09:33:00,
2013-03-19 05:43:00,28.0,25.0,29.91,NE,40,2.0,-999.0,88,-99.99,,,-99.99,,2013-03-19 09:43:00,
2013-03-19 05:52:00,28.0,25.0,29.91,ENE,69,2.0,-999.0,88,-99.99,,,-99.99,,2013-03-19 09:52:00,
2013-03-19 06:04:00,28.0,25.0,29.90,NW,326,4.0,-999.0,88,-99.99,,,-99.99,,2013-03-19 10:04:00,
2013-03-19 06:13:00,28.0,25.0,29.90,NW,326,4.0,-999.0,88,-99.99,,,-99.99,,2013-03-19 10:13:00,
2013-03-19 06:23:00,28.0,25.0,29.88,North,1,3.0,-999.0,88,-99.99,,,-99.99,,2013-03-19 10:23:00,
2013-03-19 06:33:00,28.0,25.0,29.88,NW,322,4.0,-999.0,88,-99.99,,,-99.99,,2013-03-19 10:33:00,
2013-03-19 06:42:00,28.0,25.0,29.88,NW,322,4.0,-999.0,88,-99.99,,,-99.99,,2013-03-19 10:42:00,
2013-03-19 06:52:00,29.0,26.0,29.87,North,11,3.0,-999.0,88,-99.99,,,-99.99,,2013-03-19 10:52:00,
2013-03-19 07:03:00,29.0,26.0,29.86,North,352,3.0,-999.0,88,-99.99,,,-99.99,,2013-03-19 11:03:00,
2013-03-19 07:12:00,29.0,26.0,29.86,North,352,3.0,-999.0,88,-99.99,,,-99.99,,2013-03-19 11:12:00,
2013-03-19 07:22:00,29.0,26.0,29.85,NE,38,3.0,-999.0,88,-99.99,,,-99.99,,2013-03-19 11:22:00,
2013-03-19 07:33:00,29.0,26.0,29.85,North,6,2.0,-999.0,88,-99.99,,,-99.99,,2013-03-19 11:33:00,
2013-03-19 07:43:00,29.0,26.0,29.85,North,6,2.0,-999.0,88,-99.99,,,-99.99,,2013-03-19 11:43:00,
2013-03-19 07:52:00,29.0,26.0,29.83,North,0,4.0,-999.0,88,-99.99,,,-99.99,,2013-03-19 11:52:00,
2013-03-19 08:02:00,29.0,26.0,29.83,NE,47,2.0,-999.0,88,-99.99,,,-99.99,,2013-03-19 12:02:00,
2013-03-19 08:12:00,29.0,26.0,29.83,North,10,3.0,-999.0,88,-99.99,,,-99.99,,2013-03-19 12:12:00,
2013-03-19 08:22:00,29.0,26.0,29.83,North,10,3.0,-999.0,88,-99.99,,,-99.99,,2013-03-19 12:22:00,
2013-03-19 08:33:00,30.0,27.0,29.80,NE,47,3.0,-999.0,89,-99.99,,,-99.99,,2013-03-19 12:33:00,
2013-03-19 08:43:00,30.0,27.0,29.80,NE,47,3.0,-999.0,89,-99.99,,,-99.99,,2013-03-19 12:43:00,
2013-03-19 08:52:00,30.0,27.0,29.81,NE,49,2.0,-999.0,89,-99.99,,,-99.99,,2013-03-19 12:52:00,
2013-03-19 09:02:00,30.0,27.0,29.80,North,0,3.0,-999.0,89,-99.99,,,-99.99,,2013-03-19 13:02:00,
2013-03-19 09:12:00,30.0,27.0,29.80,North,0,3.0,-999.0,89,-99.99,,,-99.99,,2013-03-19 13:12:00,
2013-03-19 09:22:00,30.0,27.0,29.80,NNE,17,3.0,-999.0,89,-99.99,,,-99.99,,2013-03-19 13:22:00,
2013-03-19 09:33:00,31.0,28.0,29.80,NW,325,3.0,-999.0,89,-99.99,,,-99.99,,2013-03-19 13:33:00,
2013-03-19 09:42:00,31.0,28.0,29.80,NW,325,3.0,-999.0,89,-99.99,,,-99.99,,2013-03-19 13:42:00,
2013-03-19 09:52:00,31.0,28.0,29.80,North,359,2.0,-999.0,89,-99.99,,,-99.99,,2013-03-19 13:52:00,
2013-03-19 10:02:00,31.0,28.0,29.80,North,6,2.0,-999.0,89,-99.99,,,-99.99,,2013-03-19 14:02:00,
2013-03-19 10:12:00,31.0,28.0,29.80,North,6,2.0,-999.0,89,-99.99,,,-99.99,,2013-03-19 14:12:00,
2013-03-19 10:22:00,31.0,28.0,29.78,NNE,25,3.0,-999.0,89,-99.99,,,-99.99,,2013-03-19 14:22:00,
2013-03-19 10:32:00,32.0,29.0,29.76,North,357,1.0,-999.0,89,-99.99,,,-99.99,,2013-03-19 14:32:00,
2013-03-19 10:42:00,32.0,29.0,29.76,North,357,1.0,-999.0,89,-99.99,,,-99.99,,2013-03-19 14:42:00,
2013-03-19 10:52:00,32.0,29.0,29.76,NNE,20,2.0,-999.0,89,-99.99,,,-99.99,,2013-03-19 14:52:00,
2013-03-19 11:02:00,32.0,29.0,29.75,North,0,3.0,-999.0,89,-99.99,,,-99.99,,2013-03-19 15:02:00,
2013-03-19 11:12:00,32.0,29.0,29.75,North,0,3.0,-999.0,89,-99.99,,,-99.99,,2013-03-19 15:12:00,
2013-03-19 11:22:00,32.0,29.0,29.73,NNE,32,2.0,-999.0,89,-99.99,,,-99.99,,2013-03-19 15:22:00,
2013-03-19 11:34:00,32.0,29.0,29.72,NE,38,3.0,-999.0,89,-99.99,,,-99.99,,2013-03-19 15:34:00,
2013-03-19 11:44:00,32.0,29.0,29.72,NE,38,3.0,-999.0,89,-99.99,,,-99.99,,2013-03-19 15:44:00,
2013-03-19 11:53:00,33.0,30.0,29.72,North,0,2.0,-999.0,90,-99.99,,,-99.99,,2013-03-19 15:53:00,
2013-03-19 12:04:00,33.0,30.0,29.71,NNE,27,2.0,-999.0,90,-99.99,,,-99.99,,2013-03-19 16:04:00,
2013-03-19 12:13:00,33.0,30.0,29.71,NNE,27,2.0,-999.0,90,-99.99,,,-99.99,,2013-03-19 16:13:00,
2013-03-19 12:24:00,33.0,30.0,29.69,North,1,2.0,-999.0,90,-99.99,,,-99.99,,2013-03-19 16:24:00,
2013-03-19 12:34:00,34.0,31.0,29.69,NNW,343,0.0,-999.0,90,-99.99,,,-99.99,,2013-03-19 16:34:00,
2013-03-19 12:44:00,34.0,31.0,29.69,NNW,343,0.0,-999.0,90,-99.99,,,-99.99,,2013-03-19 16:44:00,
2013-03-19 12:54:00,34.0,31.0,29.68,NW,323,1.0,-999.0,90,-99.99,,,-99.99,,2013-03-19 16:54:00,
2013-03-19 13:03:00,34.0,32.0,29.71,NW,316,1.0,-999.0,92,-99.99,,,-99.99,,2013-03-19 17:03:00,
2013-03-19 13:14:00,33.0,31.0,29.72,North,349,1.0,-999.0,92,-99.99,,,-99.99,,2013-03-19 17:14:00,
2013-03-19 13:23:00,33.0,31.0,29.72,North,349,1.0,-999.0,92,-99.99,,,-99.99,,2013-03-19 17:23:00,
2013-03-19 13:34:00,33.0,31.0,29.71,NW,304,3.0,-999.0,92,-99.99,,,-99.99,,2013-03-19 17:34:00,
2013-03-19 13:44:00,33.0,31.0,29.71,NW,304,3.0,-999.0,92,-99.99,,,-99.99,,2013-03-19 17:44:00,
2013-03-19 13:53:00,34.0,32.0,29.70,North,0,2.0,-999.0,92,-99.99,,,-99.99,,2013-03-19 17:53:00,
2013-03-19 14:03:00,34.0,32.0,29.69,NW,319,3.0,-999.0,92,-99.99,,,-99.99,,2013-03-19 18:03:00,
2013-03-19 14:14:00,34.0,32.0,29.69,NW,319,3.0,-999.0,92,-99.99,,,-99.99,,2013-03-19 18:14:00,
2013-03-19 14:23:00,34.0,32.0,29.69,NW,319,3.0,-999.0,92,-99.99,,,-99.99,,2013-03-19 18:23:00,
2013-03-19 14:34:00,34.0,32.0,29.69,NW,319,3.0,-999.0,92,-99.99,,,-99.99,,2013-03-19 18:34:00,
2013-03-19 14:54:00,34.0,32.0,29.64,North,0,4.0,-999.0,92,-99.99,,,-99.99,,2013-03-19 18:54:00,
2013-03-19 15:03:00,34.0,32.0,29.63,NNW,346,4.0,-999.0,92,-99.99,,,-99.99,,2013-03-19 19:03:00,
2013-03-19 15:12:00,34.0,32.0,29.63,NNW,346,4.0,-999.0,92,-99.99,,,-99.99,,2013-03-19 19:12:00,
2013-03-19 15:22:00,34.0,32.0,29.64,North,359,3.0,-999.0,92,-99.99,,,-99.99,,2013-03-19 19:22:00,
2013-03-19 15:33:00,34.0,32.0,29.64,NNE,30,4.0,-999.0,92,-99.99,,,-99.99,,2013-03-19 19:33:00,
2013-03-19 15:43:00,34.0,32.0,29.64,NNE,30,4.0,-999.0,92,-99.99,,,-99.99,,2013-03-19 19:43:00,
2013-03-19 15:52:00,35.0,33.0,29.62,North,353,3.0,-999.0,92,-99.99,,,-99.99,,2013-03-19 19:52:00,
2013-03-19 16:03:00,35.0,33.0,29.63,North,353,3.0,-999.0,91,-99.99,,,-99.99,,2013-03-19 20:03:00,
2013-03-19 16:12:00,35.0,32.0,29.62,North,0,4.0,-999.0,89,-99.99,,,-99.99,,2013-03-19 20:12:00,
2013-03-19 16:22:00,35.0,32.0,29.62,North,0,4.0,-999.0,89,-99.99,,,-99.99,,2013-03-19 20:22:00,
2013-03-19 16:33:00,35.0,32.0,29.62,NW,316,3.0,-999.0,88,-99.99,,,-99.99,,2013-03-19 20:33:00,
2013-03-19 16:43:00,35.0,32.0,29.62,NW,316,3.0,-999.0,88,-99.99,,,-99.99,,2013-03-19 20:43:00,
2013-03-19 16:52:00,35.0,32.0,29.62,NW,316,3.0,-999.0,88,-99.99,,,-99.99,,2013-03-19 20:52:00,
2013-03-19 17:02:00,35.0,32.0,29.62,NNW,332,3.0,-999.0,87,-99.99,,,-99.99,,2013-03-19 21:02:00,
2013-03-19 17:12:00,35.0,32.0,29.63,NNW,330,2.0,-999.0,87,-99.99,,,-99.99,,2013-03-19 21:12:00,
2013-03-19 17:23:00,35.0,32.0,29.63,NNW,330,2.0,-999.0,87,-99.99,,,-99.99,,2013-03-19 21:23:00,
2013-03-19 17:34:00,35.0,31.0,29.63,NW,325,3.0,-999.0,86,-99.99,,,-99.99,,2013-03-19 21:34:00,
2013-03-19 17:43:00,35.0,31.0,29.63,NW,325,3.0,-999.0,86,-99.99,,,-99.99,,2013-03-19 21:43:00,
2013-03-19 17:52:00,35.0,31.0,29.64,WNW,302,0.0,-999.0,86,-99.99,,,-99.99,,2013-03-19 21:52:00,
2013-03-19 18:03:00,35.0,31.0,29.64,NNW,344,0.0,-999.0,86,-99.99,,,-99.99,,2013-03-19 22:03:00,
2013-03-19 18:13:00,35.0,31.0,29.64,NNW,344,0.0,-999.0,86,-99.99,,,-99.99,,2013-03-19 22:13:00,
2013-03-19 18:23:00,35.0,31.0,29.64,NW,319,1.0,-999.0,86,-99.99,,,-99.99,,2013-03-19 22:23:00,
2013-03-19 18:33:00,35.0,31.0,29.64,NNW,328,0.0,-999.0,86,-99.99,,,-99.99,,2013-03-19 22:33:00,
2013-03-19 18:43:00,34.0,30.0,29.65,NNW,339,0.0,-999.0,86,-99.99,,,-99.99,,2013-03-19 22:43:00,
2013-03-19 18:53:00,34.0,30.0,29.65,NNW,339,0.0,-999.0,86,-99.99,,,-99.99,,2013-03-19 22:53:00,
2013-03-19 19:03:00,34.0,30.0,29.65,NNW,339,0.0,-999.0,86,-99.99,,,-99.99,,2013-03-19 23:03:00,
2013-03-19 19:12:00,34.0,30.0,29.65,East,89,0.0,-999.0,86,-99.99,,,-99.99,,2013-03-19 23:12:00,
2013-03-19 19:22:00,34.0,30.0,29.65,East,89,0.0,-999.0,86,-99.99,,,-99.99,,2013-03-19 23:22:00,
2013-03-19 19:33:00,34.0,30.0,29.65,NE,44,0.0,-999.0,86,-99.99,,,-99.99,,2013-03-19 23:33:00,
2013-03-19 19:43:00,34.0,30.0,29.65,NE,44,0.0,-999.0,86,-99.99,,,-99.99,,2013-03-19 23:43:00,
2013-03-19 19:52:00,34.0,30.0,29.66,NE,34,0.0,-999.0,86,-99.99,,,-99.99,,2013-03-19 23:52:00,
2013-03-19 20:03:00,34.0,30.0,29.67,NE,34,0.0,-999.0,86,-99.99,,,-99.99,,2013-03-20 00:03:00,
2013-03-19 20:13:00,34.0,30.0,29.67,NE,34,0.0,-999.0,86,-99.99,,,-99.99,,2013-03-20 00:13:00,
2013-03-19 20:22:00,34.0,30.0,29.67,NE,34,0.0,-999.0,86,-99.99,,,-99.99,,2013-03-20 00:22:00,
2013-03-19 20:33:00,34.0,30.0,29.68,NE,34,0.0,-999.0,86,-99.99,,,-99.99,,2013-03-20 00:33:00,
2013-03-19 20:43:00,34.0,30.0,29.68,NE,34,0.0,-999.0,86,-99.99,,,-99.99,,2013-03-20 00:43:00,
2013-03-19 20:52:00,33.0,29.0,29.68,NE,34,0.0,-999.0,86,-99.99,,,-99.99,,2013-03-20 00:52:00,
2013-03-19 21:03:00,33.0,29.0,29.69,NE,34,0.0,-999.0,86,-99.99,,,-99.99,,2013-03-20 01:03:00,
2013-03-19 21:12:00,33.0,29.0,29.68,NE,34,0.0,-999.0,86,-99.99,,,-99.99,,2013-03-20 01:12:00,
2013-03-19 21:22:00,33.0,29.0,29.68,NE,34,0.0,-999.0,86,-99.99,,,-99.99,,2013-03-20 01:22:00,
2013-03-19 21:32:00,33.0,29.0,29.69,NE,34,0.0,-999.0,86,-99.99,,,-99.99,,2013-03-20 01:32:00,
2013-03-19 21:43:00,33.0,29.0,29.69,NE,34,0.0,-999.0,86,-99.99,,,-99.99,,2013-03-20 01:43:00,
2013-03-19 21:52:00,32.0,29.0,29.68,NE,34,0.0,-999.0,87,-99.99,,,-99.99,,2013-03-20 01:52:00,
2013-03-19 22:02:00,32.0,29.0,29.68,NE,34,0.0,-999.0,87,-99.99,,,-99.99,,2013-03-20 02:02:00,
2013-03-19 22:12:00,32.0,29.0,29.68,NE,34,0.0,-999.0,87,-99.99,,,-99.99,,2013-03-20 02:12:00,
2013-03-19 22:22:00,32.0,29.0,29.70,NE,34,0.0,-999.0,87,-99.99,,,-99.99,,2013-03-20 02:22:00,
2013-03-19 22:32:00,32.0,29.0,29.70,ESE,116,0.0,-999.0,87,-99.99,,,-99.99,,2013-03-20 02:32:00,
2013-03-19 22:42:00,32.0,29.0,29.70,ESE,116,0.0,-999.0,87,-99.99,,,-99.99,,2013-03-20 02:42:00,
2013-03-19 22:52:00,33.0,30.0,29.70,NNE,17,0.0,-999.0,87,-99.99,,,-99.99,,2013-03-20 02:52:00,
2013-03-19 23:02:00,33.0,30.0,29.70,NNE,17,0.0,-999.0,87,-99.99,,,-99.99,,2013-03-20 03:02:00,
2013-03-19 23:12:00,33.0,30.0,29.70,NW,320,1.0,-999.0,87,-99.99,,,-99.99,,2013-03-20 03:12:00,
2013-03-19 23:22:00,33.0,30.0,29.70,NW,320,1.0,-999.0,87,-99.99,,,-99.99,,2013-03-20 03:22:00,
2013-03-19 23:34:00,33.0,30.0,29.68,NW,316,1.0,-999.0,87,-99.99,,,-99.99,,2013-03-20 03:34:00,
2013-03-19 23:43:00,33.0,30.0,29.68,NW,316,1.0,-999.0,87,-99.99,,,-99.99,,2013-03-20 03:43:00,
2013-03-19 23:53:00,32.0,29.0,29.70,West,281,1.0,-999.0,87,-99.99,,,-99.99,,2013-03-20 03:53:00,